N9CQL Weather Reports


time (UTC)temp
C
wind
direction
speed
KPH
gust
KPH
rain 1hr
cm
rain 24hr
cm
rain mn
cm
humidity
%
barometer
mb
20260504024259 15 103 0.0 0.0 0.00 0.00 0.00 66 1005.3
20260504023755 15 116 0.0 0.0 0.00 0.00 0.00 65 1005.2
20260504023252 15 108 0.0 0.0 0.00 0.00 0.00 64 1005.3
20260504022748 15 99 0.0 0.0 0.00 0.00 0.00 65 1005.1
20260504022244 15 106 0.0 0.0 0.00 0.00 0.00 64 1005.3
20260504021741 15 127 0.0 0.0 0.00 0.00 0.00 64 1005.3
20260504021239 15 107 0.0 0.0 0.00 0.00 0.00 63 1005.1
20260504020735 15 119 0.0 0.0 0.00 0.00 0.00 63 1005.0
20260504020232 15 93 0.0 0.0 0.00 0.00 0.00 62 1005.0
20260504015728 15 92 0.0 0.0 0.00 0.00 0.00 62 1004.9
20260504015225 16 117 0.0 0.0 0.00 0.00 0.00 61 1004.9
20260504014720 16 91 0.0 0.0 0.00 0.00 0.00 61 1004.9
20260504014217 16 113 0.0 0.0 0.00 0.00 0.00 61 1004.7
20260504013715 16 109 0.0 0.0 0.00 0.00 0.00 60 1004.9
20260504013213 16 109 0.0 0.0 0.00 0.00 0.00 60 1004.8
20260504012709 16 116 0.0 0.0 0.00 0.00 0.00 59 1004.6
20260504012207 16 129 0.0 0.0 0.00 0.00 0.00 59 1004.5
20260504011704 16 123 0.0 0.0 0.00 0.00 0.00 58 1004.8
20260504011200 17 120 0.0 0.0 0.00 0.00 0.00 58 1004.5
20260504010656 17 52 0.0 0.0 0.00 0.00 0.00 57 1004.4
20260504010152 17 120 0.0 0.0 0.00 0.00 0.00 56 1004.4
20260504005649 17 117 0.0 0.0 0.00 0.00 0.00 55 1004.6
20260504005145 17 149 0.0 0.0 0.00 0.00 0.00 54 1004.8
20260504004644 17 158 0.0 0.0 0.00 0.00 0.00 55 1004.3
20260504004140 17 138 0.0 0.0 0.00 0.00 0.00 55 1004.7
20260504003637 18 107 0.0 0.0 0.00 0.00 0.00 53 1004.5
20260504003133 18 100 0.0 0.0 0.00 0.00 0.00 53 1004.7
20260504002630 18 204 0.0 0.0 0.00 0.00 0.00 52 1004.6
20260504002128 18 297 0.0 0.0 0.00 0.00 0.00 51 1004.7
20260504001626 18 235 0.0 0.0 0.00 0.00 0.00 51 1004.7
20260504001121 18 81 0.0 0.0 0.00 0.00 0.00 50 1004.7
20260504000619 19 104 0.0 0.0 0.00 0.00 0.00 50 1004.6
20260504000116 19 281 0.0 0.0 0.00 0.00 0.00 49 1004.7
20260503235614 19 164 0.0 1.6 0.00 0.00 0.00 48 1004.6
20260503235111 19 86 0.0 0.0 0.00 0.00 0.00 48 1004.7
20260503234609 20 20 0.0 0.0 0.00 0.00 0.00 48 1004.5
20260503234106 20 227 0.0 0.0 0.00 0.00 0.00 47 1004.6
20260503233603 20 186 0.0 0.0 0.00 0.00 0.00 46 1004.5
20260503233059 20 202 0.0 0.0 0.00 0.00 0.00 46 1004.6
20260503232556 20 204 0.0 0.0 0.00 0.00 0.00 46 1004.8
20260503232053 20 144 0.0 0.0 0.00 0.00 0.00 46 1004.5
20260503231551 20 147 0.0 0.0 0.00 0.00 0.00 45 1004.6
20260503231048 21 246 0.0 0.0 0.00 0.00 0.00 45 1004.8
20260503230544 21 214 1.6 3.2 0.00 0.00 0.00 44 1004.7
20260503230042 20 249 0.0 0.0 0.00 0.00 0.00 45 1004.9
20260503225538 21 213 0.0 0.0 0.00 0.00 0.00 44 1004.8
20260503225033 20 261 0.0 0.0 0.00 0.00 0.00 44 1004.8
20260503224531 21 149 0.0 0.0 0.00 0.00 0.00 44 1005.0
20260503224029 21 154 0.0 0.0 0.00 0.00 0.00 44 1005.0
20260503223527 21 195 0.0 3.2 0.00 0.00 0.00 43 1005.1
20260503223022 21 262 0.0 0.0 0.00 0.00 0.00 43 1005.2
20260503222520 21 216 0.0 0.0 0.00 0.00 0.00 44 1005.4
20260503222018 21 251 0.0 0.0 0.00 0.00 0.00 45 1005.4
20260503221516 21 132 0.0 0.0 0.00 0.00 0.00 43 1005.4
20260503221013 21 220 0.0 0.0 0.00 0.00 0.00 43 1005.4
20260503220509 21 256 0.0 0.0 0.00 0.00 0.00 43 1005.7
20260503220006 21 176 0.0 0.0 0.00 0.00 0.00 42 1005.5
20260503215503 20 153 0.0 3.2 0.00 0.00 0.00 44 1005.5
20260503215000 20 120 1.6 3.2 0.00 0.00 0.00 43 1005.7
20260503214458 20 123 4.8 9.7 0.00 0.00 0.00 44 1005.8
20260503213955 20 144 0.0 0.0 0.00 0.00 0.00 43 1005.8
20260503213453 20 217 3.2 9.7 0.00 0.00 0.00 45 1006.0
20260503212949 20 219 0.0 0.0 0.00 0.00 0.00 44 1005.8
20260503212447 20 232 0.0 0.0 0.00 0.00 0.00 45 1006.1
20260503211944 20 56 0.0 0.0 0.00 0.00 0.00 45 1006.0
20260503211441 19 198 0.0 0.0 0.00 0.00 0.00 45 1006.3
20260503210936 18 183 1.6 3.2 0.00 0.00 0.00 45 1006.2
20260503210433 18 165 0.0 0.0 0.00 0.00 0.00 45 1006.4
20260503205928 17 168 0.0 1.6 0.00 0.00 0.00 47 1006.6
20260503205426 17 225 0.0 0.0 0.00 0.00 0.00 46 1006.6
20260503204921 18 327 1.6 4.8 0.00 0.00 0.00 46 1006.7
20260503204419 18 248 0.0 0.0 0.00 0.00 0.00 46 1007.0
20260503203916 17 266 1.6 3.2 0.00 0.00 0.00 44 1007.0
20260503203413 17 251 0.0 1.6 0.00 0.00 0.00 46 1007.0
20260503202910 17 159 0.0 0.0 0.00 0.00 0.00 46 1007.1
20260503202409 18 265 0.0 3.2 0.00 0.00 0.00 45 1007.0
20260503201907 18 204 1.6 3.2 0.00 0.00 0.00 45 1007.3
20260503201403 20 277 4.8 8.0 0.00 0.00 0.00 43 1007.2
20260503200901 20 176 8.0 14.5 0.00 0.00 0.00 43 1007.4
20260503200356 20 186 6.4 9.7 0.00 0.00 0.00 42 1007.6
20260503195854 20 150 1.6 8.0 0.00 0.00 0.00 45 1007.4
20260503195350 19 249 4.8 12.9 0.00 0.00 0.00 46 1007.4
20260503194848 20 232 0.0 1.6 0.00 0.00 0.00 46 1007.5
20260503194344 20 254 1.6 3.2 0.00 0.00 0.00 46 1007.5
20260503193840 20 320 0.0 1.6 0.00 0.00 0.00 46 1007.6
20260503193336 20 156 1.6 3.2 0.00 0.00 0.00 48 1007.5
20260503192832 19 234 0.0 0.0 0.00 0.00 0.00 51 1007.5
20260503192327 18 137 1.6 4.8 0.00 0.00 0.00 51 1007.7
20260503191824 18 243 6.4 11.3 0.00 0.00 0.00 52 1007.8
20260503191321 18 183 0.0 3.2 0.00 0.00 0.00 55 1007.8
20260503190818 17 166 8.0 17.7 0.00 0.00 0.00 54 1008.2
20260503190315 17 246 0.0 0.0 0.00 0.00 0.00 56 1008.1
20260503185812 17 196 1.6 4.8 0.00 0.00 0.00 59 1008.2
20260503185307 16 152 1.6 4.8 0.00 0.00 0.00 58 1008.2
20260503184802 16 348 3.2 3.2 0.00 0.00 0.00 61 1008.5
20260503184259 16 208 0.0 0.0 0.00 0.00 0.00 64 1008.5
20260503183754 15 177 0.0 0.0 0.00 0.00 0.00 66 1008.7
20260503183252 14 124 0.0 0.0 0.00 0.00 0.00 68 1008.8
20260503182749 13 176 3.2 4.8 0.00 0.00 0.00 67 1009.2
20260503182248 13 222 0.0 1.6 0.00 0.00 0.00 69 1009.2
20260503181745 13 219 0.0 1.6 0.00 0.00 0.00 69 1009.2
20260503181242 13 274 0.0 0.0 0.00 0.00 0.00 70 1009.5
20260503180738 12 74 1.6 3.2 0.00 0.00 0.00 69 1009.5
20260503180237 12 142 0.0 1.6 0.00 0.00 0.00 71 1009.7
20260503175732 12 327 0.0 1.6 0.00 0.00 0.00 77 1009.9
20260503175231 11 123 0.0 0.0 0.00 0.00 0.00 77 1010.5
20260503174726 11 191 3.2 3.2 0.00 0.00 0.00 78 1010.8
20260503174224 11 122 0.0 1.6 0.00 0.00 0.00 77 1010.7
20260503173719 11 243 0.0 1.6 0.00 0.00 0.00 78 1010.8
20260503173215 11 149 3.2 4.8 0.00 0.00 0.00 78 1011.1
20260503172712 11 83 3.2 3.2 0.00 0.00 0.00 79 1011.1
20260503172209 11 163 0.0 0.0 0.00 0.00 0.00 78 1011.4
20260503171705 11 213 1.6 3.2 0.00 0.00 0.00 77 1011.4
20260503171203 11 136 0.0 0.0 0.00 0.00 0.00 78 1011.6
20260503170700 11 161 0.0 1.6 0.00 0.00 0.00 79 1011.6
20260503170157 11 139 0.0 0.0 0.00 0.00 0.00 80 1011.9
20260503160118 11 265 1.6 3.2 0.00 0.00 0.00 72 1012.8
20260503150548 12 10 0.0 0.0 0.00 0.00 0.00 60 1012.3
20260503130938 10 168 0.0 0.0 0.00 0.00 0.00 61 1013.3
20260503130436 10 238 0.0 0.0 0.00 0.00 0.00 61 1013.2
20260503110326 8 109 0.0 0.0 0.00 0.00 0.00 63 1012.7
20260503100252 7 121 0.0 0.0 0.00 0.00 0.00 67 1013.0
20260503090212 7 156 0.0 0.0 0.00 0.00 0.00 65 1013.4
20260503081139 7 97 0.0 0.0 0.00 0.00 0.00 63 1013.4
20260503080635 7 132 0.0 0.0 0.00 0.00 0.00 64 1013.6
20260503080132 7 128 0.0 0.0 0.00 0.00 0.00 63 1013.6
20260503072609 7 172 0.0 0.0 0.00 0.00 0.00 62 1013.7
20260503072106 7 104 0.0 0.0 0.00 0.00 0.00 62 1013.7
20260503071603 7 141 0.0 0.0 0.00 0.00 0.00 62 1013.9
20260503071059 7 101 0.0 0.0 0.00 0.00 0.00 62 1014.1
20260503070556 7 146 0.0 0.0 0.00 0.00 0.00 62 1013.7
20260503055015 7 117 0.0 0.0 0.00 0.00 0.00 65 1014.5
20260503054510 7 110 0.0 0.0 0.00 0.00 0.00 65 1014.4
20260503054009 7 108 0.0 0.0 0.00 0.00 0.00 65 1014.6
20260503053506 7 108 0.0 0.0 0.00 0.00 0.00 64 1014.6
20260503053004 7 108 0.0 0.0 0.00 0.00 0.00 63 1014.8
20260503052500 7 104 0.0 0.0 0.00 0.00 0.00 63 1014.8
20260503051956 7 105 0.0 0.0 0.00 0.00 0.00 64 1014.8
20260503051452 7 103 0.0 0.0 0.00 0.00 0.00 64 1014.8
20260503050950 7 97 0.0 0.0 0.00 0.00 0.00 64 1014.8
20260503050445 7 97 0.0 0.0 0.00 0.00 0.00 64 1014.9
20260503045943 7 97 0.0 0.0 0.00 0.00 0.00 63 1014.8
20260503045441 7 97 0.0 0.0 0.00 0.00 0.00 64 1014.8
20260503044937 7 89 0.0 0.0 0.00 0.00 0.00 64 1014.8
20260503044434 7 89 0.0 0.0 0.00 0.00 0.00 64 1014.8
20260503043932 7 83 0.0 0.0 0.00 0.00 0.00 64 1014.9
20260503043428 7 83 0.0 0.0 0.00 0.00 0.00 64 1014.6
20260503042924 6 79 0.0 0.0 0.00 0.00 0.00 65 1014.8
20260503042421 6 74 0.0 0.0 0.00 0.00 0.00 67 1014.9
20260503041917 6 74 0.0 0.0 0.00 0.00 0.00 67 1015.2
20260503041415 6 75 0.0 0.0 0.00 0.00 0.00 68 1014.9
20260503040912 6 61 0.0 0.0 0.00 0.00 0.00 68 1015.0
20260503040409 6 58 0.0 0.0 0.00 0.00 0.00 69 1015.0
20260503035907 6 58 0.0 0.0 0.00 0.00 0.00 70 1015.3
20260503035403 6 58 0.0 0.0 0.00 0.00 0.00 70 1015.1
20260503034900 6 58 0.0 0.0 0.00 0.00 0.00 70 1015.0
20260503034358 5 58 0.0 0.0 0.00 0.00 0.00 70 1015.1
20260503033854 6 58 0.0 0.0 0.00 0.00 0.00 69 1014.9
20260503033352 6 58 0.0 0.0 0.00 0.00 0.00 70 1014.9
20260503032850 6 58 0.0 0.0 0.00 0.00 0.00 70 1015.1
20260503032349 6 58 0.0 0.0 0.00 0.00 0.00 69 1015.2
20260503031846 6 58 0.0 0.0 0.00 0.00 0.00 69 1015.2
20260503031343 6 58 0.0 0.0 0.00 0.00 0.00 69 1015.2
20260503030839 6 58 0.0 0.0 0.00 0.00 0.00 68 1015.3
20260503030336 6 58 0.0 0.0 0.00 0.00 0.00 68 1015.4
20260503025833 6 58 0.0 0.0 0.00 0.00 0.00 67 1015.1
20260503025330 6 58 0.0 0.0 0.00 0.00 0.00 67 1015.1
20260503024827 6 58 0.0 0.0 0.00 0.00 0.00 66 1015.4